Current Version              Previous Version:    01  02  03  04  05  06  07  08  09  10  11  12  13  14  15  16  17  18  19  20  21  22  23  24  25  26  27  28  29  30  
   31  32  33  34  35  36  37  38  39  40  41  42  43  44  45  46  47  48  49  50  51  52  53  54  55  56  57  58  59  60  

[Printable]
643
ASUS44 KEWX 242102
RWRTX
SOUTH TEXAS REGIONAL WEATHER ROUNDUP
NATIONAL WEATHER SERVICE AUSTIN/SAN ANTONIO TX
400 PM CDT FRI OCT 24 2014

NOTE: "FAIR" INDICATED FEW OR NO CLOUDS BELOW 12,000 FEET WITH NO
SIGNIFICANT WEATHER AND/OR OBSTRUCTIONS TO VISIBILITY.

* - THESE STATIONS ARE NOT NWS OR FAA STATIONS...AND ARE NOT SUBJECT
    TO NWS AND FAA QUALITY CONTROL.

TXZ171-172-183>190-242200-
TEXAS HILL COUNTRY AND EDWARDS PLATEAU

CITY           SKY/WX    TMP DP  RH WIND       PRES   REMARKS
JUNCTION       SUNNY     85  54  34 S8        30.10F
*LLANO         NOT AVBL
BURNET         MOSUNNY   83  58  42 SE6       30.12F
*HORSESHOE BAY PTSUNNY   86  56  36 SW5       30.10S
*KERRVILLE     MOSUNNY   82  59  46 E3        30.12F
*FREDERICKSBRG MOSUNNY   81  57  43 SW5       30.12F
*ROCKSPRINGS   MOSUNNY   81  57  44 S3        30.17F
*BOERNE STAGE  PTSUNNY   88  54  31 SW6       30.12F
*CASTROVILLE   CLOUDY    89  54  30 SE5       30.10F
HONDO          PTSUNNY   82  57  42 SW7       30.11F
*UVALDE        SUNNY     88  62  41 W5        30.10F
DEL RIO        SUNNY     83  63  50 SE7       30.08F
LAUGHLIN AFB   SUNNY     84  66  54 SW8       30.09F
CARRIZO SPRGS  PTSUNNY   88  59  37 SE7       30.07F
$$

TXZ173-191>194-202-209-217>225-228-242200-
CENTRAL AND SOUTH CENTRAL TEXAS

CITY           SKY/WX    TMP DP  RH WIND       PRES   REMARKS
GEORGETOWN     SUNNY     84  61  45 SE5       30.09F
AUSTIN/BERGSTM MOSUNNY   85  60  42 VRB5      30.08F
AUSTIN/MABRY   SUNNY     85  61  44 CALM      30.10F
*AUSTIN/EXEC   SUNNY     82  59  44 E5        30.10F
*LAGO VISTA    MOSUNNY   83  58  43 S5        30.11F
SAN MARCOS     MOSUNNY   86  57  37 E6        30.09F
NEW BRAUNFELS  PTSUNNY   87  56  34 W5        30.07F
RANDOLPH AFB   SUNNY     85  57  37 VRB3      30.09F
PT SAN ANTONIO MOSUNNY   84  57  39 S2        30.08F
SAN ANTONIO    MOSUNNY   85  58  39 N3        30.09F
STINSON FIELD  CLOUDY    88  57  34 VRB5      30.07F
*PLEASANTON    SUNNY     87  56  34 N3        30.09F
*LA GRANGE     SUNNY     83  62  47 CALM      30.08S HAZE
*GIDDINGS      SUNNY     82  57  42 SE5       30.13F HAZE
*GONZALES      SUNNY     85  61  43 CALM      30.08S
$$

TXZ163>164-176>182-195>201-210>213-226-227-235-242200-
SOUTHEAST TEXAS

CITY           SKY/WX    TMP DP  RH WIND       PRES   REMARKS
COLLEGE STN    SUNNY     80  55  42 CALM      30.10F
*BRYAN         SUNNY     80  58  46 CALM      30.11F
*CALDWELL      SUNNY     82  54  36 CALM      30.13F
*CROCKETT      SUNNY     82  61  47 N5        30.14S
*BRENHAM       SUNNY     83  56  39 N3        30.10F
HUNTSVILLE     SUNNY     81  55  40 VRB6      30.10F
CONROE         SUNNY     81  54  39 VRB5      30.10F
HOUSTON BUSH   SUNNY     81  56  42 NE6       30.09F
HOUSTON HOBBY  SUNNY     80  53  39 NE6       30.08F
*HOUSTON SW AP SUNNY     74  51  43 CALM      30.09S
PEARLAND       SUNNY     81  51  35 N5        30.10F
HOUSTON HOOKS  SUNNY     80  55  42 VRB6      30.09F
ELLINGTON FLD  SUNNY     77  50  38 NE3       30.10F
SUGAR LAND     SUNNY     82  53  36 NW5       30.08F
*HOUSTON EXEC  SUNNY     81 N/A N/A N6        30.10F
*CLEVELAND MUN SUNNY     79  60  52 N5        30.10F
*WHARTON       SUNNY     82  52  34 N5        30.09F
*COLUMBUS      FAIR      83  58  43 E6        30.08F
$$

TXZ214>216-236>238-242200-
THE UPPER TEXAS COAST

CITY           SKY/WX    TMP DP  RH WIND       PRES   REMARKS
*ORANGE        SUNNY     76  46  34 N3        30.10S
PORT ARTHUR    SUNNY     80  48  32 N10       30.08S
GALVESTON      SUNNY     76  52  43 N8        30.10S
ANGLETON       SUNNY     80  50  34 E3        30.08F
*BAY CITY        N/A     82  53  36 N5        30.08F
PALACIOS       SUNNY     84  54  35 NE8       30.08F
$$

TXZ229>234-239>247-242200-
TEXAS COASTAL BEND AND RIO GRANDE PLAINS

CITY           SKY/WX    TMP DP  RH WIND       PRES   REMARKS
VICTORIA       SUNNY     87  57  35 NE6       30.08F
*BEEVILLE      MOSUNNY   87  55  34 N7        30.07F
ROCKPORT       SUNNY     82  58  43 E12       30.07F
*PORT ARANSAS  SUNNY     79  60  53 E8        30.08F
*PORT LAVACA   SUNNY     83  58  42 NE6       30.08F
*INGLESIDE     SUNNY     85  58  40 E9        30.08F
CORPUS CHRISTI MOSUNNY   83  60  45 E10       30.08F
CORPUS NAS     SUNNY     81  60  48 E9        30.08F
*ROBSTOWN      HVY RAIN  85  59  40 E7        30.08F
ALICE          SUNNY     87  60  40 E8        30.07F
KINGSVILLE NAS MOSUNNY   87  61  41 E8        30.07F
COTULLA        MOSUNNY   89  58  34 VRB3      30.07F
*FAITH RANCH   MOSUNNY   86  57  37 W5        30.08F
LAREDO         SUNNY     86  60  41 VRB3      30.10F
$$

TXZ248>255-242200-
DEEP SOUTH TEXAS

CITY           SKY/WX    TMP DP  RH WIND       PRES   REMARKS
BROWNSVILLE    SUNNY     84  64  50 NE10      30.07F
PORT ISABEL    MOSUNNY   83  64  52 NE13      30.07F
*SOUTH PADRE     N/A    N/A N/A N/A NE10      30.07F VSB 3/4
HARLINGEN      SUNNY     83  65  54 NE9       30.07S
*HEBBRONVILLE  SUNNY     87  55  34 NE8       30.09S
MCALLEN        SUNNY     85  63  47 E9        30.07F
*WESLACO       MOSUNNY   85  61  44 E9        30.06F
FALFURRIAS     SUNNY     84  60  43 CALM      30.06F
EDINBURG       SUNNY     87  62  42 NE7       30.07F
*ZAPATA        SUNNY     90  54  29 E5        30.06F
$$

TXZ213>215-236>238-242>244-246-247-251-254-255-242200-
CMAN STATIONS

STATION/POSITION TIME  TEMP    WIND        PRES    WAVE
                       AIR SEA DIR/SP/G            HT/PER
                 (UTC) (F)     (DEG/KT/KT) (MB)    (FT/S)
SABINE PASS      2000   74 72   30/  9/ 13 1018.7
SEA RIM ST PARK  2000   74      40/  6/  8 1019.2
NORTH JETTY/GLS  2000   74 75   20/  5/  6   N/A
EAGLE POINT      2000   72 74   80/  3/  5 1019.1
MORGANS POINT    2000   74     160/  4/  6 1018.8
MISSION/ARANSAS  2000          150/  3     1020.0
PORT O`CONNOR    2000          140/  2/  3   N/A
PORT ARANSAS     2000   76 79   60/  7/  8 1020.2
MALAQUITE BEACH  2000   76 79   60/  9/ 10 1018.4
BAFFIN BAY       2000   77 84   70/  9/ 12 1018.8
PORT ISABEL      2000   78 78   20/  9/ 13 1018.4
$$

GMZ080-GMZ150>470-242200-
OFFSHORE BUOY REPORTS

STATION/POSITION TIME  TEMP    WIND        PRES    WAVE
                       AIR SEA DIR/SP/G            HT/PER
                 (UTC) (F)     (DEG/KT/KT) (MB)    (FT/S)
20 E GALVESTON   2100   71 78   30/  4/  6 1018.6    2/ 8
90 E PT ARANSAS  2100   74 81   20/ 10/ 14 1019.0    3/ 8
35 NE PT MANSFLD 2000   76 80   30/ 10/ 12 1018.4    4/ 8
200 E PT ISABEL  2000   76 81   20/ 12/ 14 1017.2    4/ 7
$$